Regional Weather Roundup
Issued by NWS

Home | Current Version | Previous Version | Text Only | Print | Product List | Glossary Off
Versions: 1 2 3 4 5 6 7 8 9 10 11 12 13 14 15 16 17 18 19 20 21 22 23 24 25 26 27 28 29 30 31 32 33 34 35 36 37 38 39 40 41 42 43 44 45 46 47 48 49 50

000
ASUS45 KSLC 281210
RWRUT

UTAH REGIONAL WEATHER ROUNDUP
NATIONAL WEATHER SERVICE SALT LAKE CITY UT
600 AM MDT THU JUL 28 2016

UTZ001>011-023>025-281300-

NORTHERN UTAH

CITY           SKY/WX    TMP DP  RH WIND       PRES   REMARKS
BRIGHAM CITY     N/A     62  45  53 SE6       30.08R
HILL AFB       PTCLDY    69  33  25 E16       30.10R
LOGAN          CLEAR     56  47  71 W3        30.11R
OGDEN          PTCLDY    69  34  27 S10       30.07R
PROVO AIRPORT  CLEAR     66  41  39 S6        30.10R
SALT LAKE CITY PTCLDY    74  40  29 E7        30.05R
VERNAL         CLEAR     58  37  45 CALM      30.16R
WENDOVER       PTCLDY    82  32  16 SE9       30.07R
HEBER CITY     CLEAR     48  36  61 CALM      30.21R

$$

UTZ012>022-026-027-281300-

SOUTHERN/CENTRAL UTAH

CITY           SKY/WX    TMP DP  RH WIND       PRES   REMARKS
BLANDING       CLEAR     69  32  25 E5        30.27R
BRYCE CANYON   PTCLDY    51  31  46 W5        30.37S
CEDAR CITY     PTCLDY    74  35  24 SE8       30.16S
DELTA          CLEAR     63  27  25 W5        30.09R
MILFORD        CLEAR     62  32  32 S6        30.11R
MOAB/CYNLANDS  CLEAR     72  26  18 CALM      30.05R
PRICE          CLEAR     65  21  18 N6        30.18S
ST GEORGE      SUNNY     84  41  21 E6        29.95R

$$

REGIONAL REPORTS     COLORADO/ARIZONA

CITY           SKY/WX    TMP DP  RH WIND       PRES   REMARKS
CRAIG, CO      CLEAR     41  32  70 CALM      30.27R
GRAND JUNCTION CLEAR     64  32  30 SE6       30.11R
RIFLE          CLOUDY    54  36  50 NE7       30.22R
MONTROSE       CLOUDY    59  38  45 SE8       30.23R
CORTEZ         CLEAR     52  38  58 CALM      30.23R
PAGE, AZ       PTCLDY    81  32  17 S5        30.03R
GRAND CANYON   HAZE      57  43  59 CALM      30.28R VSB 3/4
KINGMAN        MOCLDY    83  52  34 SE6       29.99R
FLAGSTAFF      CLEAR     54  45  71 CALM      30.31R

$$

REGIONAL REPORTS    NEVADA/IDAHO/WYOMING

CITY           SKY/WX    TMP DP  RH WIND       PRES   REMARKS
LAS VEGAS, NV  PTCLDY    92  44  19 SW3       29.79S
ELY            CLEAR     55  22  27 S9        30.25R
ELKO           PTCLDY    55  30  38 CALM      30.18R
POCATELLO, ID  CLEAR     55  39  54 W3        30.15R
BURLEY         CLEAR     56  49  77 SW5       30.11R
EVANSTON, WY   CLOUDY    64  25  22 CALM      30.30R
ROCK SPRINGS   CLOUDY    60  25  26 S3        30.29R
KEMMERER         N/A     50  30  46 N9        30.31S

$$



USA.gov is the U.S. government's official web portal to all federal, state and local government web resources and services.